Location: Alsleben
(50.2943°N, 10.5612°E)
Time: 06:05:00
(UTC+00:00)

Daily predictions for brighter satellites

Satellite Brightness Start Highest point End
(mag) Time Altitude Azimuth Time Altitude Azimuth Time Altitude Azimuth
NOSS 2-1 (D) 3.3 18:51:23 10° NW 18:54:41 74° SW 18:58:55 10° SE
Cosmos 1125 Rocket 3.6 18:51:02 10° S 18:56:10 60° ESE 19:01:22 10° NNE
COBE Rocket 4.5 18:51:22 10° N 18:56:23 69° WNW 19:01:28 10° SSW
ERS-1 Rocket 3.2 18:56:03 10° SE 19:00:55 55° ENE 19:05:49 10° N
NOSS 0 Rocket 4.4 18:55:03 10° SW 19:01:17 70° NW 19:07:31 10° NNE
COSMOS 2428 4.0 18:56:30 10° SW 19:02:00 47° NW 19:07:33 10° NNE
Cosmos 2292 Rocket 4.1 18:58:29 10° N 19:02:32 34° ENE 19:05:49 10° SE
Cosmos 1674 Rocket 3.9 18:58:40 10° N 19:02:52 47° ENE 19:07:05 10° SSE
NOSS 2-1 (E) 3.2 18:59:35 10° NW 19:02:53 81° SW 19:07:04 10° SE
BREEZE-M DEB (TANK) 1.7 19:01:07 10° W 19:03:24 76° S 19:06:13 10° E
Cosmos 2341 Rocket 4.2 18:57:18 10° S 19:03:36 85° W 19:09:59 10° N
CSL-04 Debris 4.3 18:58:58 10° SSE 19:04:21 86° WSW 19:09:48 10° NNW
Cosmos 2366 rocket 4.1 19:02:02 10° S 19:08:11 84° W 19:14:22 10° N
NOSS 2-1 (C) 3.5 19:05:35 10° NW 19:08:52 63° SW 19:13:06 10° SSE
Cosmos 44 3.9 19:06:29 10° S 19:11:07 37° ESE 19:15:59 10° NE
Okean-O 3.6 19:07:28 10° SE 19:11:16 30° ENE 19:15:04 10° N
Cosmos 1727 Rocket 4.1 19:06:15 10° N 19:12:35 68° ENE 19:18:50 10° SSE
Cosmos 1908 Rocket 4.5 19:10:12 10° SSE 19:13:53 28° E 19:17:35 10° NNE
MetOp-B 4.2 19:09:02 10° SSE 19:14:20 65° ENE 19:19:39 10° N
Cosmos 1378 Rocket 3.5 19:10:38 10° N 19:15:02 88° ENE 19:19:23 10° S
SL-16 R/B 2.7 19:12:09 10° S 19:17:20 39° ESE 19:22:34 10° NE
Meteor 2-21 Rocket 4.5 19:11:26 10° N 19:17:35 72° ENE 19:23:45 10° SSE
Okean O Rocket 2.3 19:15:51 10° SE 19:19:45 36° ENE 19:23:43 10° N
Cosmos 2084 Rocket 4.5 19:17:18 10° WSW 19:21:14 47° NW 19:25:16 10° NE
CZ-4 R/B 1.8 19:21:11 10° S 19:24:52 58° W 19:28:30 10° NNW
ATLAS 5 CENTAUR R/B 3.5 19:24:51 10° NNW 19:27:27 18° NNE 19:30:24 10° ENE
Spot 2 Rocket 3.9 19:23:16 11° SE 19:27:57 48° ENE 19:32:46 10° N
NOSS 3-1 (C) 4.1 19:21:29 10° NW 19:28:10 68° NE 19:35:43 13° SE
SPOT 5 3.9 19:24:23 10° S 19:28:37 41° W 19:32:45 10° NNW
Cosmos 1140 Rocket 4.5 19:24:23 10° N 19:29:01 32° NE 19:32:51 14° ESE
NOSS 3-4 (A) 3.9 19:25:27 10° WSW 19:30:43 59° NW 19:36:41 10° NE
NOSS 3-4 (C) 3.9 19:25:57 10° WSW 19:31:15 59° NW 19:37:15 10° NE
Cosmos 1656 Rocket 3.9 19:26:02 10° NNW 19:31:29 71° WSW 19:36:59 10° SSE
Cosmos 1025 Rocket 2.9 19:27:30 10° N 19:31:48 78° E 19:36:04 10° SSE
Cosmos 546 4.5 19:28:18 10° W 19:31:59 89° N 19:35:39 10° E
Helios 1A Rocket 2.3 19:29:07 10° NNE 19:32:21 81° WNW 19:35:32 10° SSW
PAYLOAD B 4.4 19:31:01 10° S 19:36:30 74° WSW 19:42:01 10° NNW
Cosmos 1733 Rocket 3.8 19:32:46 10° SSW 19:37:05 57° WNW 19:41:27 10° N
Terra 1.8 19:33:02 10° SSE 19:37:43 84° WSW 19:42:27 10° NNW
BREEZE-M DEB (TANK) 2.5 19:36:39 10° W 19:39:18 60° SSW 19:43:54 15° ESE
Meteor 2-8 Rocket 4.4 19:33:41 10° S 19:39:42 72° E 19:45:45 10° NNE
Cosmos 2123 Rocket 4.1 19:35:01 10° N 19:41:15 63° ENE 19:47:09 12° SSE
Cosmos 2239 Rocket 4.5 19:36:22 10° S 19:42:33 77° E 19:48:49 10° NNE
Gblst 52 Del rocket 4.4 19:37:36 10° WSW 19:43:33 72° SSE 19:50:23 10° ENE
Cosmos 1821 Rocket 4.4 19:37:28 10° SSW 19:43:44 71° WNW 19:50:08 10° N
Cosmos 2237 Rocket 3.3 19:39:47 10° SW 19:45:17 49° NW 19:50:50 10° NNE
Cosmos 1174 4.2 19:46:58 10° NNW 19:50:02 34° NE 19:51:31 21° E
Cosmos 2150 Rocket 4.0 19:45:19 10° S 19:50:22 59° ESE 19:55:31 10° NNE
Cosmos 2058 4.3 19:47:44 10° NNE 19:50:46 21° ENE 19:52:11 17° E
Cosmos 1300 Rocket 4.0 19:48:13 16° SSE 19:51:20 41° E 19:55:22 10° NNE
Cosmos 1346 Rocket 3.2 19:48:01 10° NNW 19:51:34 55° W 19:55:05 10° S
BREEZE-M DEB (TANK) 2.4 19:50:52 10° W 19:53:19 82° S 19:58:00 12° E
COSMOS 2455 3.7 19:48:07 10° NNW 19:53:47 40° NE 19:58:10 16° ESE
Cosmos 1602 2.9 19:56:24 10° NNW 19:58:40 55° W 19:59:39 27° SSW
Cosmos 1400 Rocket 4.4 19:55:25 10° SW 19:58:42 33° WNW 20:02:03 10° N
SL-4 R/B 3.4 19:55:53 10° S 19:57:34 18° SSE 19:57:34 18° SSE
BREEZE-M DEB (TANK) 4.3 19:54:43 10° SSW 19:59:12 46° SE 20:15:02 10° ENE
Cosmos 1812 4.1 19:58:45 10° WSW 19:59:42 13° WNW 20:00:39 10° NW
SJ 16-02 3.3 19:59:17 10° N 20:01:59 16° NE 20:04:02 12° E
USA 59 Rocket 2.1 20:01:14 10° W 20:03:45 17° WSW 20:06:42 10° SSW
SWAS 4.3 20:00:08 10° NNW 20:04:12 79° ENE 20:06:21 27° SE
ASTEX 1 3.4 19:59:48 13° S 20:04:16 88° E 20:09:15 10° N
Gbstr 26 Del rocket 4.1 20:01:41 10° SSW 20:05:53 26° SE 20:06:31 25° SE
Cosmos 2297 3.7 20:00:58 10° NNW 20:06:45 86° WSW 20:10:44 21° SSE
Cosmos 1605 Rocket 4.4 20:02:58 19° SSE 20:06:59 43° E 20:12:44 10° NNE
Cosmos 1869 2.9 20:06:01 20° S 20:08:22 69° E 20:11:56 10° NNE
Cosmos 1315 Rocket 3.2 20:08:55 30° SE 20:09:57 37° E 20:13:27 10° NNE
Cosmos 2369 Rocket 2.3 20:05:30 10° NNW 20:11:05 73° WSW 20:14:59 20° SSE
SPOT 3 Rocket 3.7 20:08:17 23° SE 20:11:23 58° ENE 20:16:28 10° N
ADEOS 4.4 20:07:10 10° S 20:12:11 48° W 20:17:15 10° NNW
SL-08 R/B 3.5 20:08:37 10° NNE 20:13:33 78° WNW 20:18:26 10° SSW
USA 186 1.5 20:14:08 42° SW 20:14:34 51° W 20:16:54 10° NNW
Lacrosse 5 rocket 2.1 20:15:01 10° NW 20:17:55 32° NNE 20:19:32 20° ENE
USA 234 3.2 20:11:56 10° ENE 20:18:30 68° SE 20:25:00 10° SW
YAOGAN 11 4.0 20:14:35 10° NNE 20:18:54 88° ESE 20:23:06 11° SSW
Cosmos 2221 Rocket 4.3 20:14:39 10° NNW 20:18:56 52° W 20:22:40 13° SSW
Cosmos 2285 Rocket 4.0 20:15:04 10° SSW 20:21:27 89° WNW 20:27:49 10° NNE
Cosmos 405 Rocket 1.9 20:20:52 10° NNW 20:23:50 82° WSW 20:24:26 52° S
NOSS 3-1 (A) 4.0 20:21:07 10° NW 20:27:56 73° NE 20:33:20 24° SE
Cosmos 1943 3.3 20:23:23 13° S 20:28:17 52° ESE 20:33:46 10° NE
CZ-4B R/B 2.3 20:27:34 45° SSE 20:28:32 82° ENE 20:31:56 10° NNW
Cosmos 921 Rocket 3.2 20:24:13 10° NNW 20:28:35 58° ENE 20:30:06 36° SE
Molniya-1 3.6 20:26:23 10° SW 20:29:14 82° NW 20:36:15 10° NE
Cosmos 1023 Rocket 4.4 20:25:59 10° NNW 20:31:07 85° WSW 20:33:36 31° SSE
Cosmos 2346 Rocket 4.5 20:27:06 10° N 20:33:17 67° ENE 20:36:35 29° SSE
SL-8 R/B 3.6 20:29:01 10° WSW 20:33:42 66° S 20:36:05 28° E
Cosmos 1975 Rocket 3.0 20:29:48 10° N 20:34:16 79° E 20:35:59 37° SSE
IRS-1C Rocket 4.1 20:31:47 30° SSE 20:34:24 73° ENE 20:39:42 10° NNW
Helios 1B rocket 4.2 20:35:11 14° ENE 20:35:28 14° ENE 20:37:21 10° NNE
Cosmos 1356 Rocket 3.4 20:36:34 44° SE 20:37:27 56° E 20:41:23 10° NNE
CZ-2C R/B 2.0 20:44:39 75° N 20:44:39 75° N 20:47:21 10° NNW
Cosmos 304 Rocket 4.0 20:41:06 10° NNW 20:45:47 54° ENE 20:47:13 39° ESE
Okean-O 3.9 20:44:32 17° SSW 20:47:27 35° W 20:51:31 10° NNW
Cosmos 44 4.4 20:47:11 10° WSW 20:52:10 49° NW 20:57:24 10° NE
Okean O Rocket 3.2 20:53:05 14° SSW 20:55:59 28° W 20:59:45 10° NW
CZ-4B R/B 3.6 20:55:25 34° S 20:57:23 65° WSW 21:02:07 10° NNW
Ariane Rocket 3.0 20:57:14 37° S 20:59:15 74° WSW 21:04:19 10° NNW
ATLAS 3B R/B 4.3 20:53:23 10° NW 21:00:31 35° NNE 21:07:26 10° E
Cosmos 1656 4.3 20:55:45 10° NNW 21:01:00 45° NE 21:02:57 32° E
SL-16 R/B 3.4 20:55:59 10° WSW 21:01:23 44° NW 21:06:50 10° NNE
Cosmos 1782 Rocket 4.3 20:58:38 18° SW 21:01:36 48° WNW 21:05:49 10° N
ATLAS 5 CENTAUR R/B 1.7 21:06:09 10° NW 21:10:06 62° NE 21:11:03 49° E
Cosmos 1140 Rocket 4.2 21:05:59 10° NW 21:10:51 44° WSW 21:12:46 31° SSW
Terra 4.5 21:14:17 10° WSW 21:16:00 12° W 21:17:43 10° WNW
Cosmos 1818 3.8 21:16:14 10° NW 21:21:42 65° NE 21:23:15 45° ESE
Cosmos 1862 4.2 21:19:16 10° NNW 21:22:35 35° W 21:22:56 34° WSW
Cosmos 1153 Rocket 4.4 21:22:57 38° S 21:25:35 89° E 21:31:55 10° N
ALOS 2 4.3 21:26:08 21° ENE 21:26:37 21° ENE 21:29:55 10° NNE
Cosmos 2058 3.8 21:23:19 10° NNW 21:26:58 38° W 21:27:31 36° WSW
Meteor 2-17 Rocket 4.5 21:21:08 10° NNW 21:27:18 77° W 21:29:29 42° S
Cosmos 407 Rocket 3.6 21:22:50 10° NNW 21:27:55 64° WSW 21:28:57 51° SSW
Cosmos 1459 Rocket 4.1 21:26:51 46° SE 21:28:26 59° E 21:34:35 10° NNE
Cosmos 371 Rocket 3.3 21:27:49 10° NNW 21:32:38 69° WSW 21:33:16 61° SSW
ARIANE 5 R/B 3.9 21:32:43 28° ENE 21:32:56 28° ENE 21:36:40 10° N
ATLAS 2AS CENTAUR R/B 3.8 21:38:07 26° E 21:38:07 26° E 21:42:40 10° ENE
Meteor 2-1 Rocket 4.3 21:37:34 53° SE 21:38:26 59° E 21:44:05 10° NNE
ARIANE 6 FM1 Upper Stage 3.9 21:35:42 10° NW 21:39:19 32° NNE 21:40:03 29° NE
COSMOS 2455 3.2 21:34:05 10° NW 21:39:55 54° WSW 21:41:17 45° SSW
Cosmos 2056 Rocket 4.3 21:40:33 37° E 21:40:33 37° E 21:44:59 10° NE
SJ 16-02 1.2 21:36:21 10° NNW 21:40:32 77° W 21:40:32 77° W
Cosmos 1802 Rocket 4.2 21:40:52 49° SE 21:42:02 56° E 21:48:07 10° NNE
Cosmos 2251 Rocket 3.4 21:37:16 10° NNW 21:42:39 86° ENE 21:43:27 66° SSE
Cosmos 1536 Rocket 3.5 21:41:13 10° NNW 21:45:29 73° W 21:45:29 73° W
Cosmos 1816 Rocket 4.3 21:46:02 10° N 21:52:14 88° E 21:53:36 57° SSE
Cosmos 2369 Rocket 4.5 21:51:47 10° WNW 21:54:05 13° W 21:56:23 10° WSW
Lacrosse 5 rocket 3.0 21:51:33 10° WNW 21:52:47 21° WNW 21:52:47 21° WNW
Cosmos 2016 Rocket 4.1 21:55:13 53° SE 21:56:16 60° E 22:02:29 10° NNE
SeaSat 1 2.5 21:56:42 62° E 21:57:12 67° NE 22:02:05 10° NNW
USA 234 3.7 21:55:03 10° ENE 22:01:30 62° NNW 22:07:55 10° W
Cosmos 1697 Rocket 3.2 21:58:41 10° NNW 22:04:10 49° NE 22:05:24 42° E
Cosmos 2173 Rocket 3.9 22:03:21 50° SSW 22:05:01 76° W 22:11:10 10° N
Helios 1B rocket 3.4 22:09:10 38° NW 22:09:10 38° NW 22:11:33 10° NNW
Cosmos 1892 Rocket 3.8 22:05:05 10° N 22:09:00 64° NNE 22:09:00 64° NNE
Cosmos 1603 4.0 22:07:59 35° SW 22:10:21 64° WNW 22:16:02 10° NNE
YAOGAN 20A 4.5 22:12:03 71° S 22:12:32 75° SE 22:18:43 10° NE
Meteor 2-3 Rocket 3.9 22:07:44 10° NNW 22:13:15 59° W 22:14:03 53° SW
YAOGAN 20B 4.5 22:14:25 71° SSE 22:14:47 74° SE 22:20:59 10° NE
Cosmos 2151 Rocket 4.3 22:17:04 44° W 22:17:18 44° WNW 22:21:31 10° N
Okean 1 Rocket 3.4 22:17:47 62° NW 22:17:47 62° NW 22:21:49 10° N
Helios 1A 3.8 22:18:29 10° N 22:22:03 44° WNW 22:22:03 44° WNW
Cosmos 1371 Rocket 3.9 22:23:19 75° E 22:23:19 75° E 22:28:28 10° NNE
Okean 2 Rocket 3.7 22:24:29 50° WNW 22:24:29 50° WNW 22:28:51 10° N
Cosmos 1980 Rocket 3.3 22:19:26 10° NNW 22:24:43 37° NE 22:26:39 29° E
Cosmos 968 Rocket 3.4 22:21:53 10° NNW 22:27:07 74° ENE 22:27:16 74° E
Cosmos 1455 Rocket 3.4 22:28:48 62° NNE 22:28:48 62° NNE 22:32:32 10° N
CZ-2C R/B 4.0 22:25:48 10° NNE 22:29:25 58° NNE 22:29:25 58° NNE
Tsikada Rocket 3.8 22:24:57 10° N 22:31:17 89° W 22:32:10 68° S
Cosmos 1741 Rocket 4.3 22:30:32 10° NNW 22:35:47 57° ENE 22:36:11 56° E
Cosmos 2061 Rocket 3.8 22:35:46 67° SE 22:36:27 75° E 22:42:39 10° NNE
Meteor 1-27 4.1 22:40:55 77° SSW 22:41:22 89° WNW 22:47:07 10° NNE
Cosmos 1758 Rocket 4.4 22:41:06 10° N 22:44:33 45° NE 22:44:33 45° NE
Cosmos 332 Rocket 4.5 22:46:12 10° NNW 22:50:07 45° WNW 22:50:07 45° WNW
ATLAS 5 CENTAUR R/B 3.6 22:48:29 10° WNW 22:50:10 19° W 22:50:10 19° W
ATLAS 3B R/B 3.0 22:44:41 10° NW 22:52:34 73° NE 22:55:41 39° ESE
Cosmos 1867 4.4 22:54:03 39° E 22:54:03 39° E 22:58:01 10° NE
Aureole 3 Rocket 3.5 22:58:44 86° SE 22:58:48 87° E 23:05:25 10° N
Cosmos 1833 Rocket 2.5 23:01:17 86° SSE 23:01:21 87° ESE 23:07:00 10° NNE
Cosmos 2082 Rocket 3.8 23:02:51 22° E 23:02:51 22° E 23:06:36 10° NE
ALOS 2 3.4 23:03:31 45° WNW 23:03:31 45° WNW 23:06:57 10° NNW
BREEZE-M R/B 4.2 22:56:48 10° W 23:05:06 87° N 23:10:50 10° E
ARIANE 5 R/B 3.9 23:10:04 33° WNW 23:10:04 33° WNW 23:13:12 10° NNW
CZ-2C R/B 3.3 23:04:12 10° NNE 23:09:16 59° E 23:09:16 59° E
Cosmos 1602 Rocket 4.3 23:10:38 10° N 23:14:04 49° NNE 23:14:04 49° NNE
PSLV R/B 4.2 23:11:23 10° N 23:14:38 50° NNW 23:14:38 50° NNW
Cosmos 2228 4.0 23:18:31 41° NW 23:18:31 41° NW 23:21:45 10° N
USA 229 DEB 3.9 23:11:17 10° NW 23:18:43 74° SW 23:20:33 56° SSE
USA 229 3.9 23:11:20 10° NW 23:18:47 75° SW 23:20:39 56° SSE
Cosmos 1850 Rocket 4.2 23:15:33 10° NNW 23:20:06 59° WNW 23:20:06 59° WNW
SL-16 R/B 4.0 23:18:22 10° NNW 23:23:11 27° NE 23:27:51 11° E
ATLAS 2AS CENTAUR R/B 2.6 23:25:29 52° SW 23:27:21 82° NW 23:34:13 10° NE
Cosmos 1331 Rocket 4.0 23:27:28 79° WNW 23:27:28 79° WNW 23:32:42 10° NNE
CZ-2C R/B 2.5 23:29:07 85° SSE 23:29:16 90° WSW 23:34:44 10° NNW
SeaSat 1 4.2 23:36:18 20° W 23:36:18 20° W 23:38:47 10° NW
Cosmos 2098 Rocket 3.7 23:36:56 68° ESE 23:37:09 69° E 23:42:42 10° NNE
Nadezhda 4 Rocket 3.8 23:36:09 10° N 23:42:21 90° ENE 23:43:04 72° S
Timation 1 Rocket 4.2 23:42:54 76° SSW 23:43:25 88° ESE 23:49:29 10° NNE
ACS3 Solar Sail 2.7 23:38:04 10° NNE 23:43:34 35° E 23:44:43 32° ESE
USA 234 4.1 23:37:46 10° ENE 23:44:01 50° N 23:50:17 10° WNW
Meteor 1-25 Rocket 4.1 23:38:46 10° NNW 23:44:36 79° W 23:44:52 77° SW
Cosmos 1110 Rocket 4.3 23:44:35 54° W 23:44:59 56° WNW 23:50:13 10° NNE
Cosmos 1697 Rocket 3.7 23:42:57 10° NW 23:47:06 32° W 23:47:06 32° W
Cosmos 2151 4.3 23:50:01 10° NNW 23:52:40 32° NW 23:52:40 32° NW
Cosmos 1606 Rocket 4.0 23:55:25 57° NE 23:55:25 57° NE 23:59:08 10° NNE
